• In Hungary
  • List of Countries
  • For 7 days
  • Water Temperature
  • Satellite Maps
  • Weather Map
  • News
  • Weather Widgets
  • user-avatar
    Login

    Hourly Weather Santa Lucía

    Today, 22 February, Thursday

    Time Temperature Precipitation Wind Pressure Humidity
    00:00 +18°C° 0.2 mm 2 mps 697 mmHg 96%
    01:00 +18°C° 0.1 mm 2 mps 697 mmHg 97%
    02:00 +17°C° 0.1 mm 2 mps 697 mmHg 97%
    03:00 +18°C° 0.1 mm 1 mps 697 mmHg 97%
    04:00 +18°C° 0 mm 1 mps 697 mmHg 97%
    05:00 +18°C° 0 mm 1 mps 697 mmHg 97%
    06:00 +16°C° 0 mm 1 mps 697 mmHg 97%
    07:00 +20°C° 0 mm 1 mps 697 mmHg 86%
    08:00 +22°C° 0 mm 1 mps 698 mmHg 76%
    09:00 +25°C° 0 mm 1 mps 699 mmHg 65%
    10:00 +26°C° 0 mm 1 mps 699 mmHg 57%
    11:00 +28°C° 0 mm 1 mps 699 mmHg 49%
    12:00 +29°C° 0 mm 2 mps 699 mmHg 41%
    13:00 +29°C° 0 mm 2 mps 698 mmHg 43%
    14:00 +29°C° 0 mm 3 mps 697 mmHg 45%
    15:00 +28°C° 0 mm 3 mps 696 mmHg 47%
    16:00 +26°C° 0 mm 3 mps 696 mmHg 58%
    17:00 +24°C° 0 mm 2 mps 696 mmHg 69%
    18:00 +21°C° 0 mm 2 mps 696 mmHg 79%
    19:00 +20°C° 0.1 mm 2 mps 696 mmHg 84%
    20:00 +19°C° 0.1 mm 2 mps 697 mmHg 89%
    21:00 +19°C° 0.1 mm 1 mps 697 mmHg 95%
    22:00 +19°C° 0.2 mm 1 mps 697 mmHg 95%
    23:00 +19°C° 0.2 mm 1 mps 697 mmHg 96%

    Tomorrow, 23 February, Friday

    Time Temperature Precipitation Wind Pressure Humidity
    00:00 +19°C° 0.2 mm 1 mps 697 mmHg 96%
    01:00 +19°C° 0.2 mm 1 mps 697 mmHg 96%
    02:00 +19°C° 0.2 mm 1 mps 697 mmHg 96%
    03:00 +19°C° 0.2 mm 1 mps 696 mmHg 96%
    04:00 +18°C° 0.1 mm 1 mps 696 mmHg 97%
    05:00 +18°C° 0.1 mm 1 mps 696 mmHg 97%
    06:00 +18°C° 0.1 mm 1 mps 697 mmHg 97%
    07:00 +20°C° 0 mm 1 mps 697 mmHg 88%
    08:00 +20°C° 0 mm 0 mps 698 mmHg 80%
    09:00 +22°C° 0 mm 0 mps 699 mmHg 71%
    10:00 +25°C° 0 mm 1 mps 699 mmHg 63%
    11:00 +27°C° 0 mm 1 mps 698 mmHg 55%
    12:00 +28°C° 0 mm 2 mps 698 mmHg 48%
    13:00 +28°C° 0 mm 2 mps 697 mmHg 50%
    14:00 +27°C° 0 mm 2 mps 696 mmHg 53%
    15:00 +27°C° 0 mm 3 mps 696 mmHg 56%
    16:00 +25°C° 0.2 mm 3 mps 696 mmHg 65%
    17:00 +23°C° 0.2 mm 2 mps 696 mmHg 75%
    18:00 +20°C° 0.2 mm 2 mps 696 mmHg 84%
    19:00 +20°C° 0.5 mm 2 mps 696 mmHg 88%
    20:00 +19°C° 0.5 mm 2 mps 696 mmHg 92%
    21:00 +19°C° 0.5 mm 1 mps 696 mmHg 96%
    22:00 +19°C° 0.2 mm 1 mps 696 mmHg 97%
    23:00 +19°C° 0.2 mm 1 mps 696 mmHg 97%

    Day after tomorrow, 24 February, Saturday

    Time Temperature Precipitation Wind Pressure Humidity
    00:00 +19°C° 0.2 mm 1 mps 696 mmHg 97%
    01:00 +19°C° 0.2 mm 1 mps 696 mmHg 97%
    02:00 +19°C° 0.2 mm 1 mps 695 mmHg 97%
    03:00 +18°C° 0.2 mm 1 mps 695 mmHg 98%
    04:00 +18°C° 0.1 mm 1 mps 695 mmHg 97%
    05:00 +18°C° 0.1 mm 1 mps 695 mmHg 97%
    06:00 +18°C° 0.1 mm 1 mps 695 mmHg 97%
    07:00 +20°C° 0 mm 1 mps 696 mmHg 88%
    08:00 +20°C° 0 mm 0 mps 697 mmHg 78%
    09:00 +22°C° 0 mm 0 mps 697 mmHg 69%
    10:00 +26°C° 0 mm 1 mps 697 mmHg 61%
    11:00 +28°C° 0 mm 1 mps 697 mmHg 52%
    12:00 +30°C° 0 mm 1 mps 696 mmHg 44%
    13:00 +29°C° 0 mm 2 mps 696 mmHg 45%
    14:00 +29°C° 0 mm 2 mps 695 mmHg 46%
    15:00 +29°C° 0 mm 3 mps 694 mmHg 47%
    16:00 +27°C° 0 mm 3 mps 694 mmHg 57%
    17:00 +24°C° 0 mm 2 mps 694 mmHg 68%
    18:00 +21°C° 0 mm 2 mps 694 mmHg 78%
    19:00 +20°C° 0 mm 2 mps 694 mmHg 84%
    20:00 +19°C° 0 mm 2 mps 695 mmHg 89%
    21:00 +19°C° 0 mm 1 mps 695 mmHg 95%
    22:00 +19°C° 0 mm 1 mps 695 mmHg 95%
    23:00 +19°C° 0 mm 1 mps 695 mmHg 95%

    25 February, Sunday

    Time Temperature Precipitation Wind Pressure Humidity
    00:00 +18°C° 0 mm 1 mps 695 mmHg 96%
    01:00 +18°C° 0 mm 1 mps 694 mmHg 96%
    02:00 +18°C° 0 mm 1 mps 694 mmHg 96%
    03:00 +18°C° 0 mm 1 mps 694 mmHg 96%
    04:00 +18°C° 0 mm 1 mps 694 mmHg 95%
    05:00 +16°C° 0 mm 1 mps 694 mmHg 95%
    06:00 +16°C° 0 mm 1 mps 694 mmHg 95%
    07:00 +20°C° 0 mm 1 mps 695 mmHg 83%
    08:00 +23°C° 0 mm 1 mps 696 mmHg 71%
    09:00 +23°C° 0 mm 0 mps 697 mmHg 59%
    10:00 +27°C° 0 mm 1 mps 697 mmHg 53%
    11:00 +29°C° 0 mm 1 mps 696 mmHg 46%
    12:00 +30°C° 0 mm 1 mps 696 mmHg 40%
    13:00 +30°C° 0 mm 2 mps 695 mmHg 41%
    14:00 +30°C° 0 mm 2 mps 695 mmHg 43%
    15:00 +29°C° 0 mm 3 mps 694 mmHg 44%
    16:00 +27°C° 0 mm 3 mps 694 mmHg 55%
    17:00 +25°C° 0 mm 2 mps 694 mmHg 66%
    18:00 +21°C° 0 mm 2 mps 694 mmHg 78%
    19:00 +20°C° 0.1 mm 2 mps 694 mmHg 83%
    20:00 +19°C° 0.1 mm 2 mps 695 mmHg 88%
    21:00 +19°C° 0.1 mm 1 mps 695 mmHg 94%
    22:00 +19°C° 0 mm 1 mps 695 mmHg 94%
    23:00 +18°C° 0 mm 1 mps 695 mmHg 94%

    26 February, Monday

    Time Temperature Precipitation Wind Pressure Humidity
    00:00 +18°C° 0 mm 1 mps 695 mmHg 95%
    01:00 +18°C° 0 mm 1 mps 695 mmHg 95%
    02:00 +18°C° 0 mm 1 mps 695 mmHg 95%
    03:00 +16°C° 0 mm 1 mps 694 mmHg 95%
    04:00 +16°C° 0 mm 1 mps 695 mmHg 94%
    05:00 +16°C° 0 mm 1 mps 695 mmHg 93%
    06:00 +16°C° 0 mm 1 mps 695 mmHg 93%
    07:00 +19°C° 0 mm 1 mps 696 mmHg 81%
    08:00 +22°C° 0 mm 1 mps 697 mmHg 69%
    09:00 +25°C° 0 mm 1 mps 698 mmHg 58%
    10:00 +27°C° 0 mm 1 mps 698 mmHg 51%
    11:00 +28°C° 0 mm 1 mps 697 mmHg 44%
    12:00 +30°C° 0 mm 1 mps 697 mmHg 37%
    13:00 +30°C° 0 mm 2 mps 696 mmHg 39%
    14:00 +29°C° 0 mm 2 mps 696 mmHg 41%
    15:00 +29°C° 0 mm 3 mps 695 mmHg 42%
    16:00 +27°C° 0 mm 3 mps 695 mmHg 53%
    17:00 +25°C° 0 mm 2 mps 695 mmHg 64%
    18:00 +21°C° 0 mm 2 mps 695 mmHg 74%
    19:00 +20°C° 0 mm 2 mps 695 mmHg 81%
    20:00 +19°C° 0 mm 2 mps 696 mmHg 88%
    21:00 +19°C° 0 mm 1 mps 696 mmHg 96%
    22:00 +18°C° 0 mm 1 mps 696 mmHg 96%
    23:00 +18°C° 0 mm 1 mps 696 mmHg 97%

    27 February, Tuesday

    Time Temperature Precipitation Wind Pressure Humidity
    00:00 +18°C° 0 mm 1 mps 696 mmHg 97%
    01:00 +18°C° 0.1 mm 1 mps 696 mmHg 97%
    02:00 +18°C° 0.1 mm 1 mps 696 mmHg 96%
    03:00 +18°C° 0.1 mm 1 mps 696 mmHg 96%
    04:00 +18°C° 0.1 mm 1 mps 696 mmHg 96%
    05:00 +18°C° 0.1 mm 1 mps 696 mmHg 96%
    06:00 +18°C° 0.1 mm 1 mps 696 mmHg 97%
    07:00 +20°C° 0.1 mm 1 mps 697 mmHg 87%
    08:00 +22°C° 0.1 mm 1 mps 698 mmHg 77%
    09:00 +24°C° 0.1 mm 1 mps 698 mmHg 67%
    10:00 +25°C° 0.1 mm 1 mps 698 mmHg 61%
    11:00 +26°C° 0.1 mm 1 mps 698 mmHg 55%
    12:00 +27°C° 0.1 mm 2 mps 697 mmHg 50%
    13:00 +27°C° 0 mm 2 mps 697 mmHg 51%
    14:00 +27°C° 0 mm 3 mps 696 mmHg 52%
    15:00 +27°C° 0 mm 3 mps 695 mmHg 53%
    16:00 +25°C° 0 mm 3 mps 695 mmHg 62%
    17:00 +23°C° 0 mm 2 mps 695 mmHg 72%
    18:00 +20°C° 0 mm 2 mps 695 mmHg 81%
    19:00 +19°C° 0 mm 2 mps 696 mmHg 86%
    20:00 +19°C° 0 mm 1 mps 696 mmHg 92%
    21:00 +18°C° 0 mm 1 mps 696 mmHg 97%
    22:00 +18°C° 0 mm 1 mps 696 mmHg 97%
    23:00 +18°C° 0 mm 1 mps 696 mmHg 98%
    Show more